Location: The Saddle
(36.8333°N, 80.3417°W)
Time: 15:29:11
(UTC-05:00)

Vanguard 3 - Visible Passes

Search period start: 30 January 2023 00:00
Search period end: 09 February 2023 00:00
Orbit: 509 x 3252 km, 33.4° (Epoch: 30 January)

Date Brightness Start Highest point End Pass type
(mag) Time Alt. Az. Time Alt. Az. Time Alt. Az.
30 Jan11.401:13:23ESE01:13:23ESE00:33:47Wvisible
30 Jan 10.8 03:17:52 23° S 03:17:52 23° S 03:23:08 10° SSE visible
30 Jan 11.0 05:22:20 10° SW 05:22:20 10° SW 05:22:32 10° SW visible
30 Jan 9.4 18:55:16 10° SW 19:04:09 46° SSE 19:13:49 22° E visible
30 Jan 9.4 21:05:44 10° WSW 21:17:59 76° S 21:18:15 76° SSE visible
30 Jan 10.7 23:18:26 10° W 23:22:43 26° W 23:22:43 26° W visible
31 Jan 11.2 02:06:58 13° SE 02:06:58 13° SE 02:08:10 10° SE visible
31 Jan 10.9 04:11:26 18° SSW 04:11:26 18° SSW 04:16:21 10° S visible
31 Jan 9.2 19:50:53 10° WSW 20:00:56 65° SSE 20:07:09 42° E visible
31 Jan 9.8 22:02:29 10° W 22:11:36 57° WSW 22:11:36 57° WSW visible
01 Feb 11.3 00:15:52 10° W 00:56:03 - SE 00:16:02 11° W visible
01 Feb 11.1 03:00:31 16° SSE 03:00:31 16° SSE 03:03:16 10° SSE visible
01 Feb 9.3 18:36:44 10° SW 18:44:51 48° SSE 18:56:01 16° E visible
01 Feb 9.3 20:47:09 10° WSW 20:58:28 76° S 21:00:28 70° ESE visible
01 Feb 10.4 22:59:32 10° W 23:04:55 32° W 23:04:55 32° W visible
02 Feb 11.1 03:54:01 13° SSW 03:54:01 13° SSW 03:55:56 10° S visible
02 Feb 9.1 19:32:24 10° WSW 19:41:38 67° SSE 19:49:19 34° E visible
02 Feb 9.5 21:43:49 10° W 21:53:45 66° WSW 21:53:45 66° WSW visible
02 Feb 11.1 23:56:49 10° W 23:58:12 15° W 23:58:12 15° W visible
03 Feb 11.3 02:43:01 10° SSE 02:43:01 10° SSE 02:43:08 10° SSE visible
03 Feb 9.1 18:18:16 10° SW 18:25:42 50° SSE 18:38:10 11° E visible
03 Feb 9.1 20:28:39 10° WSW 20:39:03 77° S 20:42:36 59° ESE visible
03 Feb 10.2 22:40:43 10° W 22:47:02 38° W 22:47:02 38° W visible
04 Feb11.501:31:59SE01:31:59SE00:51:29WNWvisible
04 Feb 8.9 19:13:59 10° WSW 19:22:26 68° SSE 19:31:25 27° E visible
04 Feb 9.3 21:25:13 10° W 21:35:52 74° SW 21:35:52 74° SW visible
04 Feb 10.9 23:37:53 10° W 23:40:18 18° W 23:40:18 18° W visible
05 Feb 8.9 17:59:51 10° SW 18:06:38 51° SSE 18:18:39 10° E visible
05 Feb 9.0 20:10:12 10° W 20:19:44 76° S 20:24:41 49° ESE visible
05 Feb 9.9 22:21:59 10° W 22:29:08 44° WSW 22:29:08 44° WSW visible
06 Feb 8.8 18:55:37 10° WSW 19:03:20 69° SSE 19:13:31 20° E visible
06 Feb 9.2 21:06:41 10° W 21:17:22 74° S 21:17:57 73° S visible
06 Feb 10.7 23:19:04 10° W 23:22:24 22° W 23:22:24 22° W visible
07 Feb 8.9 19:51:47 10° W 20:00:32 76° S 20:06:48 39° ESE visible
07 Feb 9.7 22:03:20 10° W 22:11:14 50° WSW 22:11:14 50° WSW visible
08 Feb 8.6 18:37:17 10° WSW 18:44:20 70° S 18:55:39 14° E visible
08 Feb 9.1 20:48:11 10° W 20:57:59 70° S 21:00:05 63° SE visible
08 Feb 10.5 23:00:22 10° W 23:04:32 26° W 23:04:32 26° W visible
